TimeCDT,TemperatureF,Dew PointF,Humidity,Sea Level PressureIn,VisibilityMPH,Wind Direction,Wind SpeedMPH,Gust SpeedMPH,PrecipitationIn,Events,Conditions,WindDirDegrees,DateUTC
12:54 AM,39.9,35.1,83,29.91,10.0,SE,3.5,-,N/A,,Scattered Clouds,140,2013-05-11 05:54:00
1:54 AM,41.0,37.0,86,29.88,10.0,SE,3.5,-,N/A,,Overcast,140,2013-05-11 06:54:00
2:41 AM,41.0,35.6,81,29.82,10.0,SE,6.9,-,N/A,,Overcast,140,2013-05-11 07:41:00
2:54 AM,41.0,36.0,82,29.84,10.0,SSE,4.6,-,N/A,,Overcast,160,2013-05-11 07:54:00
3:54 AM,42.1,36.0,79,29.81,10.0,SSE,5.8,-,N/A,,Overcast,160,2013-05-11 08:54:00
4:19 AM,42.8,35.6,76,29.78,10.0,SSE,9.2,-,N/A,,Overcast,160,2013-05-11 09:19:00
4:54 AM,42.1,36.0,79,29.79,10.0,SW,4.6,-,N/A,,Overcast,220,2013-05-11 09:54:00
5:54 AM,42.1,37.9,85,29.79,10.0,West,3.5,-,0.00,Rain,Light Rain,270,2013-05-11 10:54:00
6:54 AM,41.0,39.0,93,29.78,5.0,Calm,Calm,-,0.01,Rain,Light Rain,0,2013-05-11 11:54:00
7:11 AM,42.8,39.2,87,29.76,10.0,NNW,4.6,-,0.00,Rain,Light Rain,340,2013-05-11 12:11:00
7:26 AM,41.0,37.4,87,29.78,9.0,NW,21.9,25.3,0.00,Rain,Light Rain,320,2013-05-11 12:26:00
7:34 AM,39.2,33.8,81,29.78,10.0,NW,16.1,26.5,0.00,Rain,Light Rain,320,2013-05-11 12:34:00
7:54 AM,37.0,33.1,86,29.82,10.0,NW,16.1,25.3,0.00,Rain,Light Rain,310,2013-05-11 12:54:00
8:01 AM,35.6,33.8,93,29.79,9.0,NW,11.5,-,0.00,Rain,Light Rain,310,2013-05-11 13:01:00
8:27 AM,35.6,33.8,93,29.80,3.0,NW,11.5,-,0.00,Snow,Light Snow,310,2013-05-11 13:27:00
8:32 AM,35.6,33.8,93,29.80,2.5,NW,10.4,-,0.01,Snow,Light Snow,320,2013-05-11 13:32:00
8:44 AM,33.8,32.0,93,29.80,2.0,NW,9.2,-,0.01,Snow,Light Snow,320,2013-05-11 13:44:00
8:54 AM,35.1,33.1,92,29.83,2.5,NW,8.1,-,0.01,Snow,Light Snow,320,2013-05-11 13:54:00
9:01 AM,33.8,33.8,100,29.80,2.5,NW,10.4,-,0.00,Snow,Light Snow,320,2013-05-11 14:01:00
9:23 AM,35.6,33.8,93,29.79,4.0,NW,9.2,-,0.01,Snow,Light Snow,320,2013-05-11 14:23:00
9:54 AM,37.0,34.0,89,29.83,10.0,NW,20.7,27.6,0.01,Rain,Light Rain,310,2013-05-11 14:54:00
10:12 AM,39.2,35.6,87,29.80,10.0,NNW,16.1,-,0.00,,Overcast,330,2013-05-11 15:12:00
10:54 AM,39.9,33.1,77,29.83,10.0,NNW,16.1,20.7,0.00,,Overcast,340,2013-05-11 15:54:00
11:44 AM,42.8,32.0,66,29.81,10.0,NNW,25.3,36.8,0.00,,Mostly Cloudy,330,2013-05-11 16:44:00
11:54 AM,41.0,30.9,67,29.85,10.0,NNW,18.4,31.1,0.00,,Overcast,330,2013-05-11 16:54:00
12:54 PM,42.1,28.0,58,29.86,10.0,NW,18.4,31.1,0.00,,Overcast,320,2013-05-11 17:54:00
1:54 PM,45.0,24.1,44,29.86,10.0,WNW,23.0,29.9,N/A,,Overcast,300,2013-05-11 18:54:00
2:54 PM,44.1,24.1,45,29.87,10.0,NW,21.9,28.8,N/A,,Overcast,310,2013-05-11 19:54:00
3:54 PM,43.0,24.1,47,29.87,10.0,NW,19.6,28.8,N/A,,Overcast,320,2013-05-11 20:54:00
4:54 PM,45.0,24.1,44,29.87,10.0,NW,24.2,31.1,N/A,,Mostly Cloudy,320,2013-05-11 21:54:00
5:54 PM,43.0,28.0,56,29.88,10.0,WNW,17.3,27.6,0.00,,Scattered Clouds,300,2013-05-11 22:54:00
6:54 PM,39.9,28.0,63,29.90,10.0,WNW,16.1,26.5,N/A,,Mostly Cloudy,300,2013-05-11 23:54:00
7:54 PM,37.0,27.0,67,29.92,10.0,NW,20.7,33.4,0.00,,Scattered Clouds,310,2013-05-12 00:54:00
8:27 PM,37.4,26.6,65,29.88,10.0,NW,19.6,26.5,N/A,,Mostly Cloudy,310,2013-05-12 01:27:00
8:54 PM,36.0,28.0,73,29.92,10.0,NW,19.6,27.6,N/A,,Overcast,310,2013-05-12 01:54:00
9:26 PM,35.6,26.6,70,29.89,10.0,NW,17.3,26.5,N/A,,Mostly Cloudy,310,2013-05-12 02:26:00
9:33 PM,35.6,26.6,70,29.89,10.0,NW,19.6,29.9,N/A,,Mostly Cloudy,310,2013-05-12 02:33:00
9:54 PM,35.1,27.0,72,29.93,10.0,WNW,19.6,27.6,N/A,,Overcast,300,2013-05-12 02:54:00
10:54 PM,34.0,28.0,79,29.93,10.0,NW,17.3,27.6,0.00,,Overcast,310,2013-05-12 03:54:00
11:27 PM,33.8,28.4,81,29.90,10.0,NW,16.1,24.2,N/A,,Overcast,310,2013-05-12 04:27:00
11:54 PM,34.0,27.0,75,29.94,10.0,NW,19.6,31.1,N/A,,Mostly Cloudy,310,2013-05-12 04:54:00